Location: Spruce Knob
(38.6995°N, 79.5330°W)
Time: 06:59:36
(UTC-05:00)

Tiangong - Visible Passes

Search period start: 29 November 2022 00:00
Search period end: 09 December 2022 00:00
Orbit: 385 x 393 km, 41.5° (Epoch: 29 November)

Date Brightness Start Highest point End Pass type
(mag) Time Alt. Az. Time Alt. Az. Time Alt. Az.
29 Nov -0.1 17:34:52 10° SSW 17:37:10 19° SSE 17:39:30 10° E visible
29 Nov 0.2 19:10:38 10° WSW 19:12:05 24° WSW 19:12:05 24° WSW visible
30 Nov -1.9 18:12:36 10° SW 18:15:43 56° SSE 18:16:47 35° E visible
01 Dec -1.1 18:51:20 10° W 18:53:43 45° WNW 18:53:43 45° WNW visible
02 Dec -2.2 17:53:04 10° WSW 17:56:15 87° NNW 17:58:17 20° ENE visible
02 Dec 1.3 19:30:15 10° WNW 19:30:35 12° WNW 19:30:35 12° WNW visible
03 Dec -1.8 18:31:55 10° W 18:35:01 51° N 18:35:06 51° N visible
04 Dec -1.9 17:33:31 10° W 17:36:40 61° N 17:39:35 12° ENE visible
04 Dec 0.4 19:10:42 10° WNW 19:11:53 20° WNW 19:11:53 20° WNW visible
05 Dec -1.7 18:12:19 10° WNW 18:15:25 48° N 18:16:21 35° NE visible
06 Dec -0.9 18:50:56 10° WNW 18:53:07 39° NW 18:53:07 39° NW visible
07 Dec -1.9 17:52:31 10° WNW 17:55:38 53° N 17:57:38 20° E visible
07 Dec 1.2 19:29:29 10° WNW 19:29:56 13° W 19:29:56 13° W visible
08 Dec -2.2 18:30:59 10° WNW 18:34:11 84° SSW 18:34:30 69° SE visible
